Flag for Canada Weather past 2 weeks in Camrose, Alberta, Canada

Now
48 °F

Passing clouds.


Feels Like: 46 °F
Forecast: 53 / 80 °F
Wind: 6 mph from Southwest

Location: Edmonton International

Current Time: Jul 31, 2015 at 1:59:22 AM

Latest Report: Jul 31, 2015 at 1:00 AM


Visibility: 15 mi

Pressure: 30.17 "Hg (27.57 "Hg at 744m altitude)

Humidity: 94%

Dew point: 46 °F

Location of CamroseLocation

Historic Weather in Camrose — Graph

°F

Camrose temperature yesterday

Maximum temperature yesterday: 75 °F (at 5:00 PM)
Minimum temperature yesterday: 46 °F (at 1:00 AM)
Average temperature yesterday: 62 °F

Past Weeks' High & Low Weather Summary

 TemperatureHumidityPressure
High77 °F (Jul 18, 6:00 PM)100% (Jul 17, 4:00 AM)30.22 "Hg (Jul 17, 4:00 AM)
Low43 °F (Jul 23, 4:00 AM)34% (Jul 30, 5:00 PM)29.67 "Hg (Jul 20, 9:51 PM)
Average60 °F74%29.89 "Hg
* Reported Midnight between Jul 15 and Jul 16 — Midnight between Jul 30 and Jul 31, Camrose, Weather by CustomWeather, © 2015

Note: Actual official high and low records may vary slightly from our data, if they occured in-between our weather recording intervals... More about our weather records

Advertising

Camrose weather history for previous 24 hours

 ConditionsComfort  
Time TempWeatherWind HumidityBarometerVisibility
12:00 AM
Fri, Jul 31
50 °FPassing clouds.7 mph88%30.17 "Hg15 mi
11:00 PM
Thu, Jul 30
52 °FPassing clouds.6 mph82%30.16 "Hg15 mi
10:00 PM57 °FPassing clouds.3 mph72%30.15 "Hg15 mi
9:00 PM70 °FPartly sunny.No wind38%30.12 "Hg15 mi
8:00 PM72 °FPartly sunny.No wind47%30.13 "Hg15 mi
7:00 PM72 °FPartly sunny.5 mph44%30.14 "Hg15 mi
6:00 PM75 °FScattered clouds.6 mph36%30.14 "Hg15 mi
5:00 PM75 °FBroken clouds.7 mph34%30.15 "Hg15 mi
4:00 PM73 °FPartly sunny.7 mph36%30.17 "Hg15 mi
3:00 PM73 °FScattered clouds.9 mph38%30.18 "Hg15 mi
2:00 PM72 °FPassing clouds.8 mph44%30.19 "Hg15 mi
1:00 PM70 °FPassing clouds.7 mph40%30.21 "Hg15 mi
12:00 PM68 °FPassing clouds.7 mph43%30.21 "Hg15 mi
11:00 AM68 °FPassing clouds.7 mph43%30.22 "Hg15 mi
10:00 AM66 °FPassing clouds.8 mph49%30.22 "Hg15 mi
9:00 AM64 °FPassing clouds.8 mph52%30.22 "Hg15 mi
8:00 AM59 °FScattered clouds.7 mph68%30.21 "Hg15 mi
7:00 AM54 °FScattered clouds.5 mph77%30.21 "Hg15 mi
6:00 AM54 °FPassing clouds.5 mph82%30.20 "Hg15 mi
5:00 AM52 °FPartly cloudy.3 mph88%30.20 "Hg15 mi
4:00 AM52 °FPassing clouds.5 mph94%30.18 "Hg15 mi
3:00 AM50 °FPartly cloudy.3 mph94%30.16 "Hg15 mi
2:00 AM48 °FPartly cloudy.6 mph94%30.16 "Hg15 mi
1:00 AM46 °FPassing clouds.5 mph93%30.16 "Hg15 mi
Weather by CustomWeather, © 2015

See weather overviewHow to use our weather pages